SCP
1 1 -0 -0 0 0 0 0 -0 0 0 0 0 0 0 0 0 0 0 0 0 0
1 1 2 -0 0 1 0 0 0 0 0 0 0 0 0 0 0 0 0 0 0 0
1 0 0 0 0 -0 -0 0 0 0 0 0 0 0 0 0 0 0 0 0 0 0
0 0 0 0 0 0 0 0 0 0 0 0 0 0 0 0 0 0 0 0 0 0
0 0 0 0 0 0 0 0 0 0 0 0 0 0 0 0 0 0 0 0 0 0
0 0 0 0 0 0 0 0 0 0 0 0 0 0 0 0 0 0 0 0 0 0
0 0 0 0 0 0 0 0 0 0 0 0 0 0 0 0 0 0 0 0 0 0
0 0 0 0 0 0 0 0 0 0 0 0 0 0 0 0 0 0 0 0 0 0
0 0 0 0 0 0 0 0 0 0 0 0 0 0 0 0 0 0 0 0 0 0
0 0 0 0 0 0 0 0 0 0 0 0 0 0 0 0 0 0 0 0 0 0
0 0 0 0 0 0 0 0 0 0 0 0 0 0 0 0 0 0 0 0 0 0
0 0 0 0 0 0 0 0 0 0 0 0 0 0 0 0 0 0 0 0 0 0
0 0 0 0 0 0 0 0 0 0 0 0 0 0 0 0 0 0 0 0 0 0
0 0 0 0 0 0 0 0 0 0 0 0 0 0 0 0 0 0 0 0 0 0
Wind_Speed_500mb
33 40 47 47 42 43 41 47 48 42 40 60 59 50 52 49 52 56 56 59 63 63
45 44 43 48 48 50 56 52 53 46 48 58 51 55 55 65 62 63 66 68 65 67
53 49 53 50 55 48 63 66 53 58 58 57 56 60 55 61 65 69 66 65 70 70
65 60 53 55 69 55 58 57 59 69 73 69 68 63 62 64 67 63 69 73 78 83
47 57 63 68 62 73 60 68 63 71 77 79 68 63 60 62 71 74 76 79 81 82
41 57 67 62 45 50 68 68 64 53 57 56 57 62 64 71 74 78 79 75 74 79
30 30 32 50 54 51 42 55 51 53 55 58 62 69 70 70 69 66 65 69 75 81
9 8 17 23 24 27 35 51 59 55 61 65 63 60 60 58 58 63 67 67 71 76
15 20 24 27 30 34 40 47 54 57 56 52 53 49 46 50 56 59 66 76 81 78
18 24 31 37 41 46 51 51 47 44 44 49 47 45 46 51 58 63 69 77 77 71
25 33 41 46 46 44 43 40 41 41 38 43 44 45 49 55 59 67 71 70 66 61
31 33 35 36 34 32 34 34 38 41 40 42 42 45 48 56 61 64 64 59 56 48
27 29 30 28 29 31 35 37 31 30 35 39 37 42 48 51 58 53 52 45 45 30
21 21 20 20 20 21 22 21 25 28 29 30 36 36 33 38 44 50 47 43 39 36
Wind_Direction_500mb
231 240 256 269 262 267 272 278 285 274 288 284 277 285 285 283 289 296 297 300 304 304
227 229 236 269 260 263 267 269 275 285 268 294 276 292 279 283 290 300 302 301 305 301
224 233 223 251 256 261 267 275 276 276 285 285 292 297 291 289 289 297 297 296 299 301
241 245 250 274 250 255 264 275 276 276 289 287 289 288 284 285 288 293 296 296 298 299
259 253 254 264 275 254 264 276 277 285 283 285 279 281 283 291 297 294 296 296 297 298
258 244 273 267 282 271 273 268 271 280 279 281 284 289 295 294 294 295 295 295 297 298
257 270 278 281 286 284 267 257 285 275 283 292 296 295 296 295 296 295 296 299 298 296
227 238 273 279 280 278 266 263 275 287 293 294 294 296 298 298 295 302 304 301 300 298
210 229 252 267 273 274 276 282 287 288 292 294 296 301 299 299 306 306 302 301 303 301
237 252 260 266 274 281 284 285 287 290 295 301 306 308 302 306 303 300 302 303 305 304
260 268 272 275 276 279 282 289 295 302 302 307 308 299 301 299 299 300 304 305 305 304
262 271 280 284 287 286 287 294 300 302 298 299 294 295 299 301 302 302 307 309 314 309
279 277 278 281 283 286 288 291 293 290 292 295 296 300 302 302 305 309 309 315 323 323
278 276 276 280 281 285 288 291 295 297 298 303 307 304 312 321 321 317 314 321 326 318
Wind_Speed_850mb
33 40 47 47 42 43 41 47 48 42 40 60 59 50 52 49 52 56 56 59 63 63
45 44 43 48 48 50 56 52 53 46 48 58 51 55 55 65 62 63 66 68 65 67
53 49 53 50 55 48 63 66 53 58 58 57 56 60 55 61 65 69 66 65 70 70
65 60 53 55 69 55 58 57 59 69 73 69 68 63 62 64 67 63 69 73 78 83
47 57 63 68 62 73 60 68 63 71 77 79 68 63 60 62 71 74 76 79 81 82
41 57 67 62 45 50 68 68 64 53 57 56 57 62 64 71 74 78 79 75 74 79
30 30 32 50 54 51 42 55 51 53 55 58 62 69 70 70 69 66 65 69 75 81
9 8 17 23 24 27 35 51 59 55 61 65 63 60 60 58 58 63 67 67 71 76
15 20 24 27 30 34 40 47 54 57 56 52 53 49 46 50 56 59 66 76 81 78
18 24 31 37 41 46 51 51 47 44 44 49 47 45 46 51 58 63 69 77 77 71
25 33 41 46 46 44 43 40 41 41 38 43 44 45 49 55 59 67 71 70 66 61
31 33 35 36 34 32 34 34 38 41 40 42 42 45 48 56 61 64 64 59 56 48
27 29 30 28 29 31 35 37 31 30 35 39 37 42 48 51 58 53 52 45 45 30
21 21 20 20 20 21 22 21 25 28 29 30 36 36 33 38 44 50 47 43 39 36
Wind_Direction_850mb
231 240 256 269 262 267 272 278 285 274 288 284 277 285 285 283 289 296 297 300 304 304
227 229 236 269 260 263 267 269 275 285 268 294 276 292 279 283 290 300 302 301 305 301
224 233 223 251 256 261 267 275 276 276 285 285 292 297 291 289 289 297 297 296 299 301
241 245 250 274 250 255 264 275 276 276 289 287 289 288 284 285 288 293 296 296 298 299
259 253 254 264 275 254 264 276 277 285 283 285 279 281 283 291 297 294 296 296 297 298
258 244 273 267 282 271 273 268 271 280 279 281 284 289 295 294 294 295 295 295 297 298
257 270 278 281 286 284 267 257 285 275 283 292 296 295 296 295 296 295 296 299 298 296
227 238 273 279 280 278 266 263 275 287 293 294 294 296 298 298 295 302 304 301 300 298
210 229 252 267 273 274 276 282 287 288 292 294 296 301 299 299 306 306 302 301 303 301
237 252 260 266 274 281 284 285 287 290 295 301 306 308 302 306 303 300 302 303 305 304
260 268 272 275 276 279 282 289 295 302 302 307 308 299 301 299 299 300 304 305 305 304
262 271 280 284 287 286 287 294 300 302 298 299 294 295 299 301 302 302 307 309 314 309
279 277 278 281 283 286 288 291 293 290 292 295 296 300 302 302 305 309 309 315 323 323
278 276 276 280 281 285 288 291 295 297 298 303 307 304 312 321 321 317 314 321 326 318